sat.trackr.live / text

‹ back to catalog

STARLINK-35762

NORAD 67172 · 2025-303K

PAYLOAD ACTIVE UNKNOWN

§ Identity

Operator
Country
US
Launch date
2025-12-17
Launch site
AFETR
Launch vehicle
Mass (kg)
RCS (m²)

Purposes: comms

External: N2YO · Heavens-Above · Gunter

§ Orbital elements

Epoch: 2026-09-19T10:37:54.513120Z

Period
94.27 min
Inclination
43.0009°
Eccentricity
0.0001133
Mean motion
15.27600201 rev/d
Perigee alt
482.2 km
Apogee alt
483.8 km
Semi-major
6,861.1 km
B*
6.7483e-4
RAAN
296.8108°
Arg perigee
284.5927°
Mean anomaly
75.4799°
Rev number
4,236

§ Raw data

STARLINK-357621 67172U 25303K   26262.44299205  .00018365  00000+0  67483-3 0  99922 67172  43.0009 296.8108 0001133 284.5927  75.4799 15.27600201 42360

JSON: /api/v1/satellites/67172 · /tle

For live sub-satellite position, see the globe view (requires WebGL).

§ Visibility from observer

Set your observer location to see the next 7 days of passes ≥ 10°. The values pass through the URL so the page stays shareable.

No JS? Fill the form by hand. The geolocation button needs JavaScript.